{"data":{"norad_id":53062,"epoch":"2026-09-19T22:24:46.571040Z","epoch_age_seconds":118706,"freshness":"FRESH","line1":"1 53062U 22077V   26262.93387235 -.00000279  00000+0 -63271-5 0  9995","line2":"2 53062  97.2842  77.7466 0001199  73.6992 286.4382 15.33436062230206","mean_motion":15.33436062,"eccentricity":0.0001199,"inclination_deg":97.2842,"raan_deg":77.7466,"arg_perigee_deg":73.6992,"mean_anomaly_deg":286.4382,"bstar":-6.3271e-6,"rev_number":23020,"period_min":93.906752011679,"perigee_km":464.74920736542,"apogee_km":466.39032824835,"semimajor_km":6843.7067678069,"source":"CELESTRAK","updated_at":"2026-09-20T09:00:40.153719Z"}}